Location: Ciserano
(45.5833°N, 9.6000°E)
Time: 06:28:00
(UTC+00:00)

Cosmos 1295 Rocket - Pass Details

Date: 23 April 2021
Orbit: 944 x 993 km, 82.9° (Epoch: 13 May)

Event Time Altitude Azimuth Distance (km) Brightness Sun altitude
Rises 22:00:50 0° 2° (N) 3,683 8.5 -28.9°
Reaches altitude 10° 22:04:03 10° 18° (NNE) 2,740 7.4 -29.1°
Maximum altitude 22:08:41 21° 66° (ENE) 2,054 6.2 -29.4°
Enters shadow 22:09:27 21° 76° (ENE) 2,077 6.1 -29.4°
